sat.trackr.live / text

‹ back to catalog

STARLINK-6133

NORAD 57134 · 2023-090AK

PAYLOAD ACTIVE UNKNOWN

§ Identity

Operator
Country
US
Launch date
2023-06-23
Launch site
AFETR
Launch vehicle
Mass (kg)
RCS (m²)

Purposes: comms

External: N2YO · Heavens-Above · Gunter

§ Orbital elements

Epoch: 2026-05-25T04:02:44.083392Z

Period
94.27 min
Inclination
43.0031°
Eccentricity
0.0001092
Mean motion
15.27570523 rev/d
Perigee alt
482.3 km
Apogee alt
483.8 km
Semi-major
6,861.2 km
B*
1.1577e-5
RAAN
191.1109°
Arg perigee
296.7787°
Mean anomaly
63.2953°
Rev number
16,205

§ Raw data

STARLINK-61331 57134U 23090AK  26145.16856578  .00000056  00000+0  11577-4 0  99932 57134  43.0031 191.1109 0001092 296.7787  63.2953 15.27570523162052

JSON: /api/v1/satellites/57134 · /tle

For live sub-satellite position, see the globe view (requires WebGL).

§ Visibility from observer

Set your observer location to see the next 7 days of passes ≥ 10°. The values pass through the URL so the page stays shareable.

No JS? Fill the form by hand. The geolocation button needs JavaScript.